Location: *
(40.9167°N, 9.5000°E)
Time: 01:42:16
(UTC+00:00)

Cosmos 676 Rocket - Pass Details

Date: 09 April 2020
Orbit: 755 x 783 km, 74.0° (Epoch: 31 May)

Event Time Altitude Azimuth Distance (km) Brightness Sun altitude
Rises 19:04:32 0° 187° (S) 3,243 7.1 -13.2°
Reaches altitude 10° 19:06:56 10° 184° (S) 2,316 6.3 -13.6°
Maximum altitude 19:12:06 60° 105° (ESE) 880 4.0 -14.5°
Drops below altitude 10° 19:17:15 10° 27° (NNE) 2,313 6.5 -15.4°
Sets 19:19:39 0° 24° (NNE) 3,239 7.3 -15.8°
